Regional Weather Roundup
Issued by NWS Kansas City/Pleasant Hill, MO

Home | Current Version | Previous Version | Graphics & Text | Print | Product List | Glossary Off
Versions: 1 2 3 4 5 6 7 8 9 10 11 12 13 14 15 16 17 18 19 20 21 22 23 24 25 26 27 28 29 30 31 32 33 34 35 36 37 38 39 40 41 42 43 44 45 46 47 48 49 50

000
ASUS43 KEAX 230710
RWREAX

WEATHER ROUNDUP FOR EASTERN KANSAS AND NORTHWEST MISSOURI
NATIONAL WEATHER SERVICE KANSAS CITY/PLEASANT HILL MO
200 AM CDT SAT JUL 23 2016

KSZ040-057-103>105-MOZ028-029-037-043-230800-
...KANSAS CITY METROPOLITAN AREA...

CITY           SKY/WX    TMP DP  RH WIND       PRES   REMARKS
K.C. INTL      PTCLDY    78  73  84 S9        29.97S
K.C. DOWNTOWN  CLEAR     84  73  69 SW6       29.96S HX  90
LEES SUMMIT    CLEAR     84  76  76 S10       29.98F HX  93
OLATHE - IXD   PTCLDY    79  72  79 S7        29.98F
OLATHE - OJC   CLOUDY    78  72  81 S6        29.98F
LAWRENCE       CLEAR     77  73  87 SE6       29.95F

$$

MOZ001>008-011>017-020>025-030>033-038>040-044>046-053-054-230800-
...NORTHERN AND CENTRAL MISSOURI...

CITY           SKY/WX    TMP DP  RH WIND       PRES   REMARKS
ST. JOSEPH     CLOUDY    83  74  74 S5        29.95S
MOSBY          SUNNY     79  77  94 CALM      29.97S
WHITEMAN AFB   CLEAR     79  79 100 S5        29.97F
CLINTON        CLEAR     79  75  89 CALM      29.99S
SEDALIA        CLEAR     79  75  87 S6        30.00S
WARSAW         NOT AVBL
CHILLICOTHE      N/A     82  77  84 CALM      29.98S HX  90
KIRKSVILLE     CLEAR     75  73  93 SE3       29.99F

$$

MOZ041-047>049-056>058-063>065-088>090-097-230800-
...EASTERN AND SOUTHERN MISSOURI...

CITY           SKY/WX    TMP DP  RH WIND       PRES   REMARKS
ST. LOUIS INTL MOCLDY    80  73  79 CALM      30.00S
SPIRIT OF STL  PTCLDY    74  74 100 CALM      29.99R
COLUMBIA       CLEAR     77  76  96 SE5       30.00S
JEFFERSON CITY CLEAR     77  76  96 SE5       29.99S
ROLLA          PTCLDY    77  73  87 S5        30.00F
OSAGE BEACH    CLEAR     79  76  90 S3        30.00F
SPRINGFIELD    CLEAR     80  74  81 SE7       30.01F
BRANSON        CLEAR     79  73  83 CALM      30.03S
JOPLIN         CLEAR     80  73  79 SE7       29.99S
WEST PLAINS    PTCLDY    79  73  82 CALM      30.04F

$$

IAZ060-094-KSZ022-034>040-054-083-096-NEZ052-066-093-230800-
...KANSAS...SOUTHEAST NEBRASKA AND IOWA...

CITY           SKY/WX    TMP DP  RH WIND       PRES   REMARKS
TOPEKA         CLOUDY    83  71  67 SE6       29.94S
MANHATTAN      CLOUDY    86  70  58 S9        29.91F HX  90
EMPORIA        CLEAR     80  71  74 SE9       29.96S
CHANUTE        CLEAR     78  73  84 MISG      29.97S
WICHITA        CLEAR     84  67  56 S12       29.94S
OMAHA          CLOUDY    84  77  79 S10       29.89F HX  94
LINCOLN        CLOUDY    82  73  74 S9        29.89F
FALLS CITY     CLOUDY    81  75  82 SE7       29.92F
LAMONI         PTCLDY    78  77  96 S6        29.97F
DES MOINES     PTCLDY    82  77  84 SE8       29.95F HX  90

$$




USA.gov is the U.S. government's official web portal to all federal, state and local government web resources and services.